Time,TemperatureF,DewpointF,PressureIn,WindDirection,WindDirectionDegrees,WindSpeedMPH,WindSpeedGustMPH,Humidity,HourlyPrecipIn,Conditions,Clouds,dailyrainin,SoftwareType,DateUTC
2013-04-23 00:03:00,42.0,31.0,30.28,East,86,4.0,-999.0,64,-99.99,,,-99.99,,2013-04-23 04:03:00,
2013-04-23 00:13:00,42.0,31.0,30.28,East,86,4.0,-999.0,64,-99.99,,,-99.99,,2013-04-23 04:13:00,
2013-04-23 00:23:00,43.0,31.0,30.28,East,97,3.0,-999.0,63,-99.99,,,-99.99,,2013-04-23 04:23:00,
2013-04-23 00:33:00,42.0,30.0,30.27,ENE,59,2.0,-999.0,63,-99.99,,,-99.99,,2013-04-23 04:33:00,
2013-04-23 00:43:00,42.0,30.0,30.27,ENE,59,2.0,-999.0,63,-99.99,,,-99.99,,2013-04-23 04:43:00,
2013-04-23 00:53:00,43.0,31.0,30.27,ESE,109,2.0,-999.0,63,-99.99,,,-99.99,,2013-04-23 04:53:00,
2013-04-23 01:02:00,42.0,31.0,30.27,ESE,113,3.0,-999.0,64,-99.99,,,-99.99,,2013-04-23 05:02:00,
2013-04-23 01:12:00,42.0,31.0,30.27,ESE,113,3.0,-999.0,64,-99.99,,,-99.99,,2013-04-23 05:12:00,
2013-04-23 01:22:00,43.0,32.0,30.26,ESE,114,3.0,-999.0,64,-99.99,,,-99.99,,2013-04-23 05:22:00,
2013-04-23 01:32:00,43.0,32.0,30.26,SE,134,5.0,-999.0,64,-99.99,,,-99.99,,2013-04-23 05:32:00,
2013-04-23 01:42:00,43.0,32.0,30.26,SE,134,5.0,-999.0,64,-99.99,,,-99.99,,2013-04-23 05:42:00,
2013-04-23 01:52:00,43.0,32.0,30.25,ESE,112,3.0,-999.0,64,-99.99,,,-99.99,,2013-04-23 05:52:00,
2013-04-23 02:02:00,42.0,31.0,30.24,SE,134,3.0,-999.0,65,-99.99,,,-99.99,,2013-04-23 06:02:00,
2013-04-23 02:12:00,42.0,31.0,30.24,SE,134,3.0,-999.0,65,-99.99,,,-99.99,,2013-04-23 06:12:00,
2013-04-23 02:22:00,42.0,31.0,30.24,SE,132,5.0,-999.0,65,-99.99,,,-99.99,,2013-04-23 06:22:00,
2013-04-23 02:33:00,42.0,31.0,30.24,ESE,113,4.0,-999.0,66,-99.99,,,-99.99,,2013-04-23 06:33:00,
2013-04-23 02:42:00,42.0,31.0,30.24,ESE,113,4.0,-999.0,66,-99.99,,,-99.99,,2013-04-23 06:42:00,
2013-04-23 02:52:00,41.0,31.0,30.23,ESE,117,3.0,-999.0,67,-99.99,,,-99.99,,2013-04-23 06:52:00,
2013-04-23 03:02:00,41.0,31.0,30.23,ESE,103,3.0,-999.0,68,-99.99,,,-99.99,,2013-04-23 07:02:00,
2013-04-23 03:11:00,41.0,31.0,30.23,ESE,103,3.0,-999.0,68,-99.99,,,-99.99,,2013-04-23 07:11:00,
2013-04-23 03:22:00,41.0,32.0,30.22,SE,130,2.0,-999.0,69,-99.99,,,-99.99,,2013-04-23 07:22:00,
2013-04-23 03:32:00,41.0,32.0,30.21,East,90,4.0,-999.0,69,-99.99,,,-99.99,,2013-04-23 07:32:00,
2013-04-23 03:42:00,41.0,32.0,30.21,East,90,4.0,-999.0,69,-99.99,,,-99.99,,2013-04-23 07:42:00,
2013-04-23 03:52:00,41.0,32.0,30.20,East,88,4.0,-999.0,69,-99.99,,,-99.99,,2013-04-23 07:52:00,
2013-04-23 04:02:00,40.0,31.0,30.20,ESE,107,5.0,-999.0,70,-99.99,,,-99.99,,2013-04-23 08:02:00,
2013-04-23 04:11:00,40.0,31.0,30.20,ESE,107,5.0,-999.0,70,-99.99,,,-99.99,,2013-04-23 08:11:00,
2013-04-23 04:22:00,40.0,31.0,30.19,ESE,120,6.0,-999.0,70,-99.99,,,-99.99,,2013-04-23 08:22:00,
2013-04-23 04:32:00,40.0,31.0,30.18,SE,124,5.0,-999.0,71,-99.99,,,-99.99,,2013-04-23 08:32:00,
2013-04-23 04:42:00,40.0,31.0,30.18,SE,124,5.0,-999.0,71,-99.99,,,-99.99,,2013-04-23 08:42:00,
2013-04-23 04:52:00,40.0,31.0,30.17,ESE,113,5.0,-999.0,71,-99.99,,,-99.99,,2013-04-23 08:52:00,
2013-04-23 05:02:00,40.0,32.0,30.17,ESE,105,4.0,-999.0,72,-99.99,,,-99.99,,2013-04-23 09:02:00,
2013-04-23 05:11:00,40.0,32.0,30.17,ESE,105,4.0,-999.0,72,-99.99,,,-99.99,,2013-04-23 09:11:00,
2013-04-23 05:22:00,40.0,32.0,30.16,East,86,3.0,-999.0,72,-99.99,,,-99.99,,2013-04-23 09:22:00,
2013-04-23 05:33:00,40.0,32.0,30.15,ESE,118,3.0,-999.0,72,-99.99,,,-99.99,,2013-04-23 09:33:00,
2013-04-23 05:43:00,40.0,32.0,30.15,ESE,118,3.0,-999.0,72,-99.99,,,-99.99,,2013-04-23 09:43:00,
2013-04-23 05:52:00,40.0,32.0,30.15,ESE,102,4.0,-999.0,74,-99.99,,,-99.99,,2013-04-23 09:52:00,
2013-04-23 06:03:00,40.0,33.0,30.14,ESE,106,3.0,-999.0,75,-99.99,,,-99.99,,2013-04-23 10:03:00,
2013-04-23 06:13:00,40.0,33.0,30.14,ESE,106,3.0,-999.0,75,-99.99,,,-99.99,,2013-04-23 10:13:00,
2013-04-23 06:23:00,40.0,33.0,30.13,ESE,112,3.0,-999.0,76,-99.99,,,-99.99,,2013-04-23 10:23:00,
2013-04-23 06:33:00,40.0,33.0,30.12,East,99,2.0,-999.0,77,-99.99,,,-99.99,,2013-04-23 10:33:00,
2013-04-23 06:42:00,40.0,33.0,30.12,East,99,2.0,-999.0,77,-99.99,,,-99.99,,2013-04-23 10:42:00,
2013-04-23 06:52:00,40.0,33.0,30.11,ESE,103,2.0,-999.0,77,-99.99,,,-99.99,,2013-04-23 10:52:00,
2013-04-23 07:03:00,40.0,34.0,30.10,ESE,104,3.0,-999.0,78,-99.99,,,-99.99,,2013-04-23 11:03:00,
2013-04-23 07:12:00,40.0,34.0,30.10,ESE,104,3.0,-999.0,78,-99.99,,,-99.99,,2013-04-23 11:12:00,
2013-04-23 07:22:00,40.0,34.0,30.09,ESE,105,3.0,-999.0,79,-99.99,,,-99.99,,2013-04-23 11:22:00,
2013-04-23 07:32:00,40.0,34.0,30.09,East,93,3.0,-999.0,79,-99.99,,,-99.99,,2013-04-23 11:32:00,
2013-04-23 07:43:00,40.0,34.0,30.09,East,93,3.0,-999.0,79,-99.99,,,-99.99,,2013-04-23 11:43:00,
2013-04-23 07:52:00,40.0,34.0,30.08,SE,128,3.0,-999.0,79,-99.99,,,-99.99,,2013-04-23 11:52:00,
2013-04-23 08:02:00,41.0,35.0,30.08,East,84,3.0,-999.0,78,-99.99,,,-99.99,,2013-04-23 12:02:00,
2013-04-23 08:12:00,41.0,35.0,30.08,East,84,3.0,-999.0,78,-99.99,,,-99.99,,2013-04-23 12:12:00,
2013-04-23 08:22:00,41.0,35.0,30.07,ESE,103,5.0,-999.0,78,-99.99,,,-99.99,,2013-04-23 12:22:00,
2013-04-23 08:32:00,42.0,35.0,30.07,ESE,103,6.0,-999.0,77,-99.99,,,-99.99,,2013-04-23 12:32:00,
2013-04-23 08:42:00,42.0,35.0,30.07,ESE,103,6.0,-999.0,77,-99.99,,,-99.99,,2013-04-23 12:42:00,
2013-04-23 08:52:00,42.0,35.0,30.06,SE,128,7.0,-999.0,76,-99.99,,,-99.99,,2013-04-23 12:52:00,
2013-04-23 09:01:00,42.0,35.0,30.05,ESE,106,8.0,-999.0,76,-99.99,,,-99.99,,2013-04-23 13:01:00,
2013-04-23 09:12:00,42.0,35.0,30.05,ESE,106,8.0,-999.0,76,-99.99,,,-99.99,,2013-04-23 13:12:00,
2013-04-23 09:22:00,43.0,36.0,30.05,SE,124,10.0,-999.0,75,-99.99,,,-99.99,,2013-04-23 13:22:00,
2013-04-23 09:32:00,43.0,35.0,30.04,East,97,9.0,-999.0,74,-99.99,,,-99.99,,2013-04-23 13:32:00,
2013-04-23 09:42:00,43.0,35.0,30.04,East,97,9.0,-999.0,74,-99.99,,,-99.99,,2013-04-23 13:42:00,
2013-04-23 09:52:00,44.0,36.0,30.04,ESE,120,5.0,-999.0,73,-99.99,,,-99.99,,2013-04-23 13:52:00,
2013-04-23 10:02:00,44.0,36.0,30.04,ESE,108,6.0,-999.0,74,-99.99,,,-99.99,,2013-04-23 14:02:00,
2013-04-23 10:11:00,44.0,36.0,30.04,ESE,108,6.0,-999.0,74,-99.99,,,-99.99,,2013-04-23 14:11:00,
2013-04-23 10:22:00,44.0,36.0,30.05,ESE,112,3.0,-999.0,74,-99.99,,,-99.99,,2013-04-23 14:22:00,
2013-04-23 10:32:00,44.0,36.0,30.04,SE,142,8.0,-999.0,74,-99.99,,,-99.99,,2013-04-23 14:32:00,
2013-04-23 10:42:00,44.0,36.0,30.04,SE,142,8.0,-999.0,74,-99.99,,,-99.99,,2013-04-23 14:42:00,
2013-04-23 10:52:00,45.0,37.0,30.03,ESE,103,9.0,-999.0,74,-99.99,,,-99.99,,2013-04-23 14:52:00,
2013-04-23 11:01:00,45.0,37.0,30.03,ESE,103,9.0,-999.0,74,-99.99,,,-99.99,,2013-04-23 15:01:00,
2013-04-23 11:12:00,45.0,37.0,30.02,SSE,148,9.0,-999.0,73,-99.99,,,-99.99,,2013-04-23 15:12:00,
2013-04-23 11:22:00,45.0,37.0,30.02,SSE,150,5.0,-999.0,72,-99.99,,,-99.99,,2013-04-23 15:22:00,
2013-04-23 11:32:00,44.0,37.0,30.03,SE,136,9.0,-999.0,77,-99.99,,,-99.99,,2013-04-23 15:32:00,
2013-04-23 11:43:00,44.0,37.0,30.03,SE,136,9.0,-999.0,77,-99.99,,,-99.99,,2013-04-23 15:43:00,
2013-04-23 11:53:00,44.0,39.0,30.01,East,96,7.0,-999.0,81,-99.99,,,-99.99,,2013-04-23 15:53:00,
2013-04-23 12:03:00,43.0,38.0,30.01,South,172,7.0,-999.0,83,-99.99,,,-99.99,,2013-04-23 16:03:00,
2013-04-23 12:12:00,43.0,38.0,30.01,South,172,7.0,-999.0,83,-99.99,,,-99.99,,2013-04-23 16:12:00,
2013-04-23 12:23:00,43.0,39.0,30.00,ESE,117,6.0,-999.0,85,-99.99,,,-99.99,,2013-04-23 16:23:00,
2013-04-23 12:34:00,42.0,38.0,29.99,East,97,3.0,-999.0,87,-99.99,,,-99.99,,2013-04-23 16:34:00,
2013-04-23 12:43:00,42.0,38.0,29.99,East,97,3.0,-999.0,87,-99.99,,,-99.99,,2013-04-23 16:43:00,
2013-04-23 12:52:00,42.0,39.0,29.99,ESE,121,2.0,-999.0,88,-99.99,,,-99.99,,2013-04-23 16:52:00,
2013-04-23 13:02:00,42.0,39.0,29.98,ESE,119,4.0,-999.0,89,-99.99,,,-99.99,,2013-04-23 17:02:00,
2013-04-23 13:12:00,42.0,39.0,29.98,ESE,119,4.0,-999.0,89,-99.99,,,-99.99,,2013-04-23 17:12:00,
2013-04-23 13:22:00,42.0,40.0,29.98,ENE,78,4.0,-999.0,91,-99.99,,,-99.99,,2013-04-23 17:22:00,
2013-04-23 13:33:00,42.0,40.0,29.98,ESE,111,3.0,-999.0,91,-99.99,,,-99.99,,2013-04-23 17:33:00,
2013-04-23 13:42:00,42.0,40.0,29.98,ESE,111,3.0,-999.0,91,-99.99,,,-99.99,,2013-04-23 17:42:00,
2013-04-23 13:53:00,42.0,40.0,29.97,SE,141,3.0,-999.0,91,-99.99,,,-99.99,,2013-04-23 17:53:00,
2013-04-23 14:02:00,42.0,40.0,29.97,SSE,150,4.0,-999.0,91,-99.99,,,-99.99,,2013-04-23 18:02:00,
2013-04-23 14:12:00,42.0,40.0,29.97,SSE,150,4.0,-999.0,91,-99.99,,,-99.99,,2013-04-23 18:12:00,
2013-04-23 14:22:00,43.0,41.0,29.96,ESE,119,3.0,-999.0,91,-99.99,,,-99.99,,2013-04-23 18:22:00,
2013-04-23 14:32:00,43.0,41.0,29.96,ESE,115,1.0,-999.0,91,-99.99,,,-99.99,,2013-04-23 18:32:00,
2013-04-23 14:42:00,43.0,41.0,29.96,ESE,115,1.0,-999.0,91,-99.99,,,-99.99,,2013-04-23 18:42:00,
2013-04-23 14:52:00,43.0,40.0,29.96,SSE,159,3.0,-999.0,90,-99.99,,,-99.99,,2013-04-23 18:52:00,
2013-04-23 15:02:00,43.0,40.0,29.95,ESE,114,3.0,-999.0,90,-99.99,,,-99.99,,2013-04-23 19:02:00,
2013-04-23 15:11:00,43.0,40.0,29.95,ESE,114,3.0,-999.0,90,-99.99,,,-99.99,,2013-04-23 19:11:00,
2013-04-23 15:22:00,43.0,40.0,29.95,ESE,113,3.0,-999.0,90,-99.99,,,-99.99,,2013-04-23 19:22:00,
2013-04-23 15:32:00,43.0,40.0,29.94,ESE,120,3.0,-999.0,90,-99.99,,,-99.99,,2013-04-23 19:32:00,
2013-04-23 15:42:00,43.0,40.0,29.94,ESE,120,3.0,-999.0,90,-99.99,,,-99.99,,2013-04-23 19:42:00,
2013-04-23 15:52:00,42.0,39.0,29.93,ESE,113,2.0,-999.0,90,-99.99,,,-99.99,,2013-04-23 19:52:00,
2013-04-23 16:02:00,42.0,40.0,29.93,ESE,105,1.0,-999.0,91,-99.99,,,-99.99,,2013-04-23 20:02:00,
2013-04-23 16:11:00,42.0,40.0,29.93,ESE,105,1.0,-999.0,91,-99.99,,,-99.99,,2013-04-23 20:11:00,
2013-04-23 16:22:00,42.0,40.0,29.94,SSE,148,2.0,-999.0,91,-99.99,,,-99.99,,2013-04-23 20:22:00,
2013-04-23 16:32:00,42.0,40.0,29.94,SSE,159,3.0,-999.0,91,-99.99,,,-99.99,,2013-04-23 20:32:00,
2013-04-23 16:42:00,42.0,40.0,29.94,SSE,159,3.0,-999.0,91,-99.99,,,-99.99,,2013-04-23 20:42:00,
2013-04-23 16:52:00,41.0,39.0,29.95,South,174,3.0,-999.0,92,-99.99,,,-99.99,,2013-04-23 20:52:00,
2013-04-23 17:02:00,41.0,39.0,29.95,SSE,151,2.0,-999.0,93,-99.99,,,-99.99,,2013-04-23 21:02:00,
2013-04-23 17:12:00,41.0,39.0,29.95,SSE,151,2.0,-999.0,93,-99.99,,,-99.99,,2013-04-23 21:12:00,
2013-04-23 17:22:00,41.0,39.0,29.96,SSE,151,1.0,-999.0,93,-99.99,,,-99.99,,2013-04-23 21:22:00,
2013-04-23 17:33:00,41.0,39.0,29.95,WNW,289,3.0,-999.0,94,-99.99,,,-99.99,,2013-04-23 21:33:00,
2013-04-23 17:43:00,41.0,39.0,29.95,WNW,289,3.0,-999.0,94,-99.99,,,-99.99,,2013-04-23 21:43:00,
2013-04-23 17:52:00,38.0,36.0,29.97,NW,309,7.0,-999.0,93,-99.99,,,-99.99,,2013-04-23 21:52:00,
2013-04-23 18:03:00,38.0,36.0,29.98,NW,304,4.0,-999.0,93,-99.99,,,-99.99,,2013-04-23 22:03:00,
2013-04-23 18:12:00,38.0,36.0,29.98,NW,304,4.0,-999.0,93,-99.99,,,-99.99,,2013-04-23 22:12:00,
2013-04-23 18:23:00,37.0,35.0,29.98,NW,309,4.0,-999.0,94,-99.99,,,-99.99,,2013-04-23 22:23:00,
2013-04-23 18:33:00,37.0,35.0,29.97,NNW,341,4.0,-999.0,94,-99.99,,,-99.99,,2013-04-23 22:33:00,
2013-04-23 18:42:00,37.0,35.0,29.97,NNW,341,4.0,-999.0,94,-99.99,,,-99.99,,2013-04-23 22:42:00,
2013-04-23 18:52:00,37.0,35.0,29.98,NW,315,3.0,-999.0,94,-99.99,,,-99.99,,2013-04-23 22:52:00,
2013-04-23 19:03:00,36.0,34.0,29.98,NW,311,6.0,-999.0,93,-99.99,,,-99.99,,2013-04-23 23:03:00,
2013-04-23 19:12:00,36.0,34.0,29.98,NW,311,6.0,-999.0,93,-99.99,,,-99.99,,2013-04-23 23:12:00,
2013-04-23 19:22:00,35.0,33.0,29.98,WNW,299,5.0,-999.0,93,-99.99,,,-99.99,,2013-04-23 23:22:00,
2013-04-23 19:32:00,35.0,33.0,29.98,NW,310,4.0,-999.0,93,-99.99,,,-99.99,,2013-04-23 23:32:00,
2013-04-23 19:42:00,35.0,33.0,29.98,NW,310,4.0,-999.0,93,-99.99,,,-99.99,,2013-04-23 23:42:00,
2013-04-23 19:52:00,34.0,32.0,29.98,WNW,301,4.0,-999.0,94,-99.99,,,-99.99,,2013-04-23 23:52:00,
2013-04-23 20:02:00,34.0,32.0,29.98,WNW,301,3.0,-999.0,94,-99.99,,,-99.99,,2013-04-24 00:02:00,
2013-04-23 20:11:00,34.0,32.0,29.98,WNW,301,3.0,-999.0,94,-99.99,,,-99.99,,2013-04-24 00:11:00,
2013-04-23 20:22:00,34.0,32.0,29.98,WNW,290,4.0,-999.0,94,-99.99,,,-99.99,,2013-04-24 00:22:00,
2013-04-23 20:32:00,33.0,31.0,29.98,WNW,299,4.0,-999.0,94,-99.99,,,-99.99,,2013-04-24 00:32:00,
2013-04-23 20:42:00,33.0,31.0,29.98,WNW,299,4.0,-999.0,94,-99.99,,,-99.99,,2013-04-24 00:42:00,
2013-04-23 20:52:00,33.0,31.0,29.98,WNW,289,3.0,-999.0,94,-99.99,,,-99.99,,2013-04-24 00:52:00,
2013-04-23 21:02:00,33.0,31.0,29.99,NW,311,4.0,-999.0,94,-99.99,,,-99.99,,2013-04-24 01:02:00,
2013-04-23 21:11:00,33.0,31.0,29.99,NW,311,4.0,-999.0,94,-99.99,,,-99.99,,2013-04-24 01:11:00,
2013-04-23 21:21:00,33.0,32.0,29.98,WNW,285,5.0,-999.0,95,-99.99,,,-99.99,,2013-04-24 01:21:00,
2013-04-23 21:32:00,33.0,32.0,29.97,West,271,4.0,-999.0,95,-99.99,,,-99.99,,2013-04-24 01:32:00,
2013-04-23 21:42:00,33.0,32.0,29.97,West,271,4.0,-999.0,95,-99.99,,,-99.99,,2013-04-24 01:42:00,
2013-04-23 21:52:00,33.0,32.0,29.97,WNW,288,5.0,-999.0,95,-99.99,,,-99.99,,2013-04-24 01:52:00,
2013-04-23 22:02:00,33.0,31.0,29.98,NW,321,4.0,-999.0,94,-99.99,,,-99.99,,2013-04-24 02:02:00,
2013-04-23 22:30:00,34.0,32.0,29.97,NW,311,4.0,-999.0,94,-99.99,,,-99.99,,2013-04-24 02:30:00,
2013-04-23 22:41:00,34.0,32.0,29.98,NW,306,5.0,-999.0,93,-99.99,,,-99.99,,2013-04-24 02:41:00,
2013-04-23 22:49:00,34.0,32.0,29.98,NW,306,5.0,-999.0,93,-99.99,,,-99.99,,2013-04-24 02:49:00,
2013-04-23 22:56:00,34.0,32.0,29.98,NW,306,4.0,-999.0,93,-99.99,,,-99.99,,2013-04-24 02:56:00,
2013-04-23 23:12:00,34.0,32.0,29.97,WNW,303,4.0,-999.0,92,-99.99,,,-99.99,,2013-04-24 03:12:00,
2013-04-23 23:18:00,34.0,32.0,29.97,WNW,303,4.0,-999.0,92,-99.99,,,-99.99,,2013-04-24 03:18:00,
2013-04-23 23:42:00,34.0,32.0,29.97,NW,304,4.0,-999.0,92,-99.99,,,-99.99,,2013-04-24 03:42:00,
2013-04-23 23:52:00,34.0,32.0,29.97,NW,304,4.0,-999.0,92,-99.99,,,-99.99,,2013-04-24 03:52:00,
2013-04-23 23:57:00,34.0,32.0,29.96,NW,309,4.0,-999.0,92,-99.99,,,-99.99,,2013-04-24 03:57:00,